Regional Weather Roundup
Issued by NWS Grand Forks, ND

Home | Current Version | Previous Version | Graphics & Text | Print | Product List | Glossary On
Versions: 1 2 3 4 5 6 7 8 9 10 11 12 13 14 15 16 17 18 19 20 21 22 23 24 25 26 27 28 29 30 31 32 33 34 35 36 37 38 39 40 41 42 43 44 45 46 47 48 49 50
000
ASUS43 KFGF 230531
RWRFGF
PRAIRIE TO PINES  WEATHER ROUNDUP
NATIONAL WEATHER SERVICE EASTERN NORTH DAKOTA/GRAND FORKS ND
1200 AM CDT TUE MAY 23 2017

 **SATELLITE DATA USED TO AUGMENT SKY COVER AT AUTOMATED STATIONS**
 *****  WEATHER ACROSS EASTERN NORTH DAKOTA  *****

CITY           SKY/WX    TMP DP  RH WIND       PRES   REMARKS
GRAND FORKS    CLOUDY    50  47  89 N14       29.93R
GRAND FRKS AFB CLOUDY    48  46  93 N10       29.95R
DEVILS LAKE    CLOUDY    48  41  76 N17       30.02R
FARGO          CLOUDY    49  47  93 N13       29.90S
WAHPETON ARPT  CLOUDY    46  43  87 NW8       29.90F
$$

 ***** WEATHER ACROSS CENTRAL AND WESTERN NORTH DAKOTA  *****

CITY           SKY/WX    TMP DP  RH WIND       PRES   REMARKS
BISMARCK       CLOUDY    53  40  61 N12       30.07R
MINOT          CLOUDY    50  38  63 NW7       30.09R
JAMESTOWN      LGT RAIN  47  43  86 N16       29.97S
MINOT AFB      FAIR      42  35  79 NW9       30.09R
GARRISON         N/A     47  37  68 N8        30.09R
WILLISTON      FAIR      47  36  65 NE5       30.14R
DICKINSON      CLOUDY    51  33  50 N10       30.10R
HETTINGER      CLOUDY    51  37  58 NW8       30.10R
$$

 *****  OTHER AIRPORT OBSERVATIONS IN OUR AREA  *****

CITY           SKY/WX    TMP DP  RH WIND       PRES   REMARKS
WALHALLA       NOT AVBL
GRAFTON AIRPOR MOCLDY    48  46  93 N14       29.98R
VALLEY CITY AR NOT AVBL
CANDO          NOT AVBL
CAVALIER APRT  CLOUDY    48  45  87 N12       29.98S
GWINNER        CLOUDY    48  45  87 MISG      29.93S
SHEYENNE NWR     N/A     49  46  88 N7        29.95S
ROLLA          CLOUDY    46  45  93 N10       30.06F
 ***** THE ABOVE OBSERVATIONS ARE NON NWS ARE NOT QUALITY
       CONTROLLED AND MAY MIS-REPORT RAIN FOR SNOW...
$$

  *****  WEATHER ACROSS NORTHERN MINNESOTA  *****

CITY           SKY/WX    TMP DP  RH WIND       PRES   REMARKS
FLAG ISLAND    CLOUDY    48  45  87 N17       29.91R
WARROAD        CLOUDY    46  43  87 N13       29.91S
ROSEAU         CLOUDY    46  43  87 N12       29.92R
HALLOCK        CLOUDY    48  45  87 N13       29.95S
THF RVR FALLS  LGT RAIN  47  44  90 N13       29.92R
BAUDETTE       CLOUDY    47  46  97 N8        29.87S FOG
WASKISH        LGT RAIN  46  45  93 N6        29.86S
CROOKSTON      CLOUDY    48  46  93 N13       29.92S
STEPHEN NDAWN    N/A     48  45  87 N12         N/A
GREENBUSH NDAW   N/A     46  45  93 N10         N/A
$$
  *****  WEATHER ACROSS CENTRAL AND WEST MINNESOTA  *****

CITY           SKY/WX    TMP DP  RH WIND       PRES   REMARKS
FOSSTON        DRIZZLE   45  43  93 N8        29.89S
BEMIDJI        DRIZZLE   45  44  98 NW3       29.86S
PARK RAPIDS    LGT RAIN  45  42  89 NW5       29.85F
ELBOW LAKE     CLOUDY    46  46  97 W8        29.89S
WADENA         CLOUDY    45  43  93 NW5       29.86S
DETROIT LAKES  DRIZZLE   46  45  93 N7        29.89S
MOORHEAD       CLOUDY    48  45  87 NW9       29.91S
FERGUS FALLS   CLOUDY    46  46 100 N7        29.88S
MORRIS MN      CLOUDY    48  45  87 NW8       29.88S
STAPLES        LGT RAIN  45  43  93 CALM      29.86S
$$
  *****  WEATHER ELSEWHERE ACROSS MINNESOTA  *****

CITY           SKY/WX    TMP DP  RH WIND       PRES   REMARKS
DULUTH         CLOUDY    48  44  86 N6        29.82S
INTRNTL FALLS  CLOUDY    48  45  89 N7        29.84R
ELY            FAIR      41  41 100 CALM      29.83S FOG
CLOQUET        CLOUDY    46  43  87 CALM      29.83R
WHEATON        CLOUDY    46  43  87 NW5       29.92S
BRAINERD       CLOUDY    47  44  90 N9        29.85S
HIBBING        CLOUDY    41  40  96 CALM      29.83S
ALEXANDRIA     CLOUDY    46  44  93 N7        29.88S
SAINT CLOUD    FAIR      46  42  86 CALM      29.84S
MINNEAPOLIS    CLOUDY    56  41  57 N6        29.83S
$$

  *****  WEATHER ACROSS SOUTH DAKOTA  *****

CITY           SKY/WX    TMP DP  RH WIND       PRES   REMARKS
SIOUX FALLS    CLOUDY    51  47  86 NW10      29.92S
BROOKINGS      LGT RAIN  48  42  80 NW15G22   29.92F
WATERTOWN      LGT RAIN  47  43  86 NW12      29.91F
HURON          LGT RAIN  48  44  86 NW6       29.98S
SISSETON         N/A     49  46  90 N12       29.90S
ABERDEEN       CLOUDY    49  43  80 NW9       29.97S
MITCHELL       MOCLDY    52  44  74 N13       29.99R
PIERRE         CLOUDY    52  39  61 W7        30.01F
MOBRIDGE       CLOUDY    52  42  69 NW7       29.97S
RAPID CITY     FAIR      45  38  76 NW8       30.13S
$$

  *****  SOME WEATHER IN NEARBY STATES *****

CITY           SKY/WX    TMP DP  RH WIND       PRES   REMARKS
GLASGOW MT     FAIR      50  33  52 NE9       30.17S
GREAT FALLS MT FAIR      57  40  52 E6        30.20R
CHEYENNE WY    MOCLDY    40  34  79 NW7       30.25R
SCOTTSBLUFF NE FAIR      39  36  89 NW7       30.19R
OMAHA NE       MOCLDY    57  49  74 N9        29.91R
DES MOINES IA  LGT RAIN  57  54  89 W5        29.85F
DAVENPORT IA   FAIR      58  52  80 S9        29.86F
CHICAGO IL     CLOUDY    60  53  77 SW6       29.88F
EAU CLAIRE WI  CLOUDY    51  47  86 N5        29.81S
LA CROSSE WI   LGT RAIN  57  55  93 SE5       29.81S
$$

  *****  SOME NATIONAL WEATHER *****

CITY           SKY/WX    TMP DP  RH WIND       PRES   REMARKS
LA GUARDIA NY  CLOUDY    61  57  87 NW9       29.95R
RALEIGH NC     LGT RAIN  68  67  96 S7        29.97F
ATLANTA GA     HVY RAIN  69  68  96 NW6       29.93F FOG
NEW ORLEANS LA LGT RAIN  74  72  93 S14       29.86F
OKLAHOMA CITY  CLOUDY    59  59 100 NW3       29.94S
ALBUQUERQUE NM FAIR      68  23  18 NW13      30.09S
SALT LAKE CITY MOCLDY    64  43  46 S5        30.16R
LOS ANGELES CA CLOUDY    60  57  89 W8        29.95R
BOISE ID       FAIR      65  40  39 CALM      30.10R
SEATTLE WA     FAIR      74  50  42 N8        30.06R
$$

*** WEATHER ACROSS MANITOBA...SASKATCHEWAN AND ONTARIO ***
                ***ONTARIO***

CITY           SKY/WX    TMP DP  RH WIND       PRES   REMARKS
GERALDTON      DRIZZLE   46  45  93 N6        29.81R FOG
THUNDER BAY    MOCLDY    46  45  93 W3        29.81
SIOUX LOOKOUT  DRIZZLE   45  43  93 NE6       29.90R
TORONTO        CLEAR     52  46  82 SW8       29.92F
BIG TROUT LK   CLEAR     43  34  70 NE6       30.07R
PICKLE LAKE    NOT AVBL
DRYDEN         CLOUDY    45  43  93 NE15G25   29.89R
KENORA         LGT RAIN  45  43  93 NE9G18    29.92R
$$
                *** MANITOBA***

CITY           SKY/WX    TMP DP  RH WIND       PRES   REMARKS
BRANDON        MOCLDY    52  37  58 N6        30.08S
DAUPHIN        CLEAR     48  34  57 VRB2      30.10S
ISLAND LAKE    CLEAR     50  34  53 NE5       30.12R
PILOT MOUND      N/A     50  39  66 N14G20      N/A
THE PAS        PTCLDY    55  36  47 NE2       30.12S
THOMPSON       PTCLDY    45  32  61 CALM      30.15S
WINNIPEG       CLOUDY    50  43  76 NE15G21   30.02R
LYNN LAKE      CLEAR     50  34  53 SE6       30.10F
CHURCHILL      FOG       28  28 100 SE9       30.22S VSB 1/4 WCI  20
GILLAM         CLEAR     34  32  93 NE5       30.19F
$$
                ***SASKATCHEWAN***

CITY           SKY/WX    TMP DP  RH WIND       PRES   REMARKS
ESTEVAN        PTCLDY    48  37  66 S2        30.14R
KINDERSLEY     PTCLDY    54  30  40 SE13      30.13F
LLOYDMINSTER   CLEAR     59  37  44 S10       30.06F
PRINCE ALBERT  MOCLDY    48  34  57 CALM      30.11S
REGINA         CLEAR     46  27  46 NW8       30.14S
YORKTON        CLEAR     48  32  53 CALM      30.14S
N. BATTLEFORD  CLEAR     52  37  58 SE8       30.12F
LA RONGE       MOCLDY    52  32  46 S5        30.07F
SASKATOON      MOCLDY    55  36  47 S6        30.14S
SWIFT CURRENT  CLEAR     48  30  49 S8        30.17F
$$
NOTE: THESE ARE AUTOMATED STATIONS WITH LIMITED QUALITY CONTROL
      "FAIR" INDICATES FEW OR NO CLOUDS BELOW 12,000 FEET WITH NO
      SIGNIFICANT WEATHER AND/OR OBSTRUCTIONS TO VISIBILITY.
      SKY/WX - SKY CONDITION AND SIGNIFICANT WEATHER.
      TMP - AIR TEMPERATURE.    DP   - DEWPOINT TEMPERATURE.
      RH  - RELATIVE HUMIDITY.  PRES - PRESSURE.
      HX  - HEAT INDEX.         WCI  - WIND CHILL INDEX.
$




USA.gov is the U.S. government's official web portal to all federal, state and local government web resources and services.